STARLINK-11198, 60114

Orbit data source: Space-Track

STARLINK-11198, 60114 is a payload satellite owned by SpaceX/Seattle (US) in LEO that was launched on Mon, 24 Jun 2024 UTC via an FALCON 9 launch vehicle from the Air Force Western Test Range (AFWTR). Payload-class satellites include a variety of spacecraft equipped with specific instruments for various scientific and technological missions. These include communications satellites like Starlink; space stations such as the ISS; scientific satellites like the Hubble; Earth observation satellites from companies like Planet Labs, Umbra, and HawkEye 360; GPS; miniature CubeSats for education and research; and military/defense satellites.

Loading next visibility...
Identifier
60114, 2024-118B
Orbit
LEO
Country
Flag of USUS
Related business
Manufacturer
SpaceX/Seattle
Mission
Operational Commercial Communications
Bus & Motor
STARLINK V2MD, Unknown motor
Mass
960 kg wet, ~910 kg dry
Launch date (UTC)
2024-06-24 (1 year ago)
Launch vehicle
FALCON 9
Launch site
Air Force Western Test Range (AFWTR)
Object type
Payload
Rocket body
Debris
Shape & HBR
Box + 2 Pan, 18.1 m
Radar Cross Section
36.964 m², Large (>1 m²)

Expand to show TLE details & history
Last TLE update: 21 hours ago

TLE from 21 hours ago
0 STARLINK-11198
1 60114U 24118B   25311.02337903 -.00006068  00000-0 -45338-4 0  9996
2 60114  53.1589 106.2249 0000912  65.9604 294.1509 15.69674759 78724
Epoch: 2025-11-07T00:33Z
TLE epoch observation values (Epoch: 2025-11-07T00:33:39.948Z)
Latitude
-0.00003°
Longitude
51.33513°
Altitude
360.491 km
Speed
7.694 km/s
True Right ascension
07h 04m 53s
True Declination
0° 00' 00"
Sunlit
Object was in full shadow at epoch
Visualization orbit readout
Latitude
Unknown
Longitude
Unknown
Altitude
Unknown
Speed
Unknown
Apparent Right ascension
Unknown
Apparent Declination
Unknown
Sunlit
N/A
Visualization observer readout
Local Sidereal Time
17:44:08
Azimuth
Unknown
Elevation
Unknown
Doppler factor
Unknown
Orbital elements
Apogee altitude
360.703 km
Perigee altitude
359.474 km
Semi-major axis
6,738.225 km
Eccentricity
0.00009
Inclination
53.1589°
RAAN
106.2249°
Arg. of periapsis
65.9604°
True anomaly
294.14136°
Mean anomaly
294.1509°
Eccentric anomaly
294.14613°
Mean motion
3.92396 °/min
Orbital period
91.74 mins
BSTAR
-0.000045338
Loading maneuver chart data...
Computing Atmospheric mass density...
Loading historical data...
Loading historical data...
Loading historical data...
Loading historical data...
Loading historical data...
Loading historical data...
Loading historical data...

Documentation

Showing up to 5 results
|